User: anonymous   Login
Location: Unspecified
(0.0000°N, 0.0000°E)
Time: 19:35:07
(UTC+02:00)
Language:

Delta 2 Rocket - Orbit

View from above orbital plane
View from above orbital plane
View from above satellite
View from above satellite

Ground track
Ground track

The orbit data is extracted from the following two-line orbital elements,

1 20453U 90008B   18112.61605611  .00002254  00000-0  12836-3 0  9996
2 20453  35.6251 211.0119 0286513 223.8817 133.8808 14.84095782494184
Epoch (UTC): 22 April 2018 14:47:07
Eccentricity: 0.0286513
inclination: 35.6251°
perigee height: 416 km
apogee height: 817 km
right ascension of ascending node: 211.0119°
argument of perigee: 223.8817°
revolutions per day: 14.84095782
mean anomaly at epoch: 133.8808°
orbit number at epoch: 49418

The dashed part of the orbit path shows where the satellite is in the earth's shadow,  

DLR